Vorticity
4 6 4 5 5 2 1 2 2 5 7 7 8 7 6 4 4 4 6 5 6 8 8 6 8 7 8 8 5 4 5 6 5 5 6 6 5 5 4 7 5 5 5
5 4 10 5 5 2 2 3 2 1 6 8 7 5 4 4 5 6 4 5 7 9 7 6 8 8 7 7 4 4 5 4 4 5 4 4 3 4 5 5 5 4 5
6 5 6 10 6 -3 -1 -0 2 2 3 7 7 4 4 4 5 6 4 4 4 6 8 7 7 6 6 5 4 6 4 3 4 4 4 4 5 6 6 6 6 5 5
5 5 6 11 7 -1 0 0 -1 0 2 6 6 4 3 3 4 5 4 4 4 6 6 6 6 5 5 5 6 4 4 4 3 4 4 5 6 7 7 6 6 7 6
3 4 4 3 7 8 6 8 4 -0 -0 3 7 5 3 2 3 3 4 3 3 5 6 5 6 6 6 6 4 4 4 4 2 3 5 6 6 6 6 6 6 5 6
3 3 5 5 4 5 6 5 9 6 3 2 4 6 4 2 3 4 4 4 2 3 6 6 5 5 6 5 4 3 3 3 3 3 5 8 10 9 8 6 5 5 6
4 3 4 4 4 4 5 3 4 7 7 2 1 5 6 3 2 3 4 5 4 3 4 6 5 5 5 4 4 4 3 3 2 5 8 8 8 8 8 8 9 8 8
6 6 5 6 6 6 4 4 2 3 5 7 3 1 3 6 3 3 3 4 5 4 3 4 6 5 5 4 4 4 4 3 2 4 4 5 6 7 8 9 7 7 7
6 6 5 6 7 8 8 5 6 6 3 5 6 4 3 0 5 4 3 2 3 5 5 4 5 7 4 4 4 4 5 3 2 3 2 4 3 5 6 7 8 8 7
10 9 7 5 3 4 5 8 6 7 2 10 5 6 4 2 1 3 6 2 2 3 5 4 4 5 6 4 5 4 5 4 2 2 -0 1 0 0 3 5 7 8 8
10 11 10 10 8 6 6 5 5 6 8 6 2 8 6 5 2 1 3 5 4 2 3 4 4 4 5 6 5 5 5 5 3 2 1 0 -0 0 2 3 4 5 6
8 8 8 9 8 8 8 8 9 5 3 4 7 2 8 7 5 4 3 0 6 5 3 2 4 4 3 5 6 5 4 4 6 3 3 2 1 0 1 2 2 4 5
14 11 7 6 8 8 7 6 6 9 10 5 5 4 3 6 9 5 6 2 1 3 7 3 2 3 4 3 4 6 5 4 4 6 3 4 1 1 1 -0 1 2 4
7 9 15 13 9 7 7 7 7 6 6 9 8 7 4 2 6 6 9 4 5 1 2 4 5 3 2 4 4 4 6 5 5 4 6 5 2 2 2 1 1 1 3
3 6 9 9 9 12 9 7 5 7 7 6 6 7 8 8 3 4 3 7 8 -0 4 0 5 5 4 3 4 4 4 5 5 5 4 6 4 4 2 2 1 1 2
8 6 6 6 7 12 8 10 9 5 5 7 7 7 6 6 7 9 13 4 -4 21 -25 -1 1 3 6 5 4 3 4 4 4 5 6 5 5 6 5 3 3 2 1
12 9 9 11 14 13 9 13 7 11 7 4 5 7 8 7 6 3 -7 -21 12 -2 -52 20 -3 4 3 4 5 5 3 3 4 4 4 6 6 4 4 6 4 3 1
10 10 9 12 16 16 16 11 12 9 8 9 6 5 5 7 8 7 8 4 -3 56 -9 36 29 -35 -1 7 2 5 6 6 4 3 4 4 6 5 4 5 5 4 4
9 10 13 14 15 21 17 23 16 12 11 7 9 7 6 5 6 6 3 4 5 -32 18 44 -13 10 62 -6 3 -2 2 4 6 4 3 4 6 3 6 6 5 5 5
12 10 9 10 8 12 14 16 19 21 18 13 9 9 7 6 5 5 6 8 11 12 -4 -38 52 24 -22 6 8 3 4 3 5 5 6 4 4 6 3 3 6 5 5
5 8 9 4 5 9 16 10 15 15 21 20 19 13 10 8 8 6 6 6 5 5 11 7 -52 17 -23 -5 29 63 13 11 -16 8 7 6 5 5 6 5 5 5 4
7 7 8 11 12 9 12 14 12 10 15 18 19 19 21 13 9 9 8 5 6 8 8 10 10 4 4 -6 -4 17 15 12 -15 6 -1 7 8 5 6 5 5 4 4
3 8 12 15 16 17 10 9 9 15 15 17 14 17 25 19 17 9 10 9 6 6 10 9 10 8 12 9 -11 -7 19 18 8 8 8 -1 0 5 6 5 6 5 4
0 16 19 17 12 7 10 14 11 11 6 11 11 10 10 21 22 20 12 12 12 9 6 9 9 12 7 8 4 -7 18 -12 5 7 16 9 6 7 6 6 5 8 5
10 17 6 10 5 8 2 10 8 9 10 8 11 9 7 12 12 25 24 13 13 14 12 9 11 11 13 9 14 27 30 5 21 16 -2 4 16 9 6 7 4 -0 -5
12 17 26 18 21 22 29 20 20 15 13 14 5 12 14 7 11 5 19 24 21 14 17 13 7 13 15 17 -0 -14 14 -16 4 30 2 7 22 9 6 4 11 17 10
Height
5851 5852 5852 5853 5853 5853 5853 5852 5852 5852 5852 5852 5853 5853 5854 5854 5854 5855 5855 5855 5856 5855 5855 5855 5855 5855 5856 5857 5858 5858 5859 5859 5860 5860 5860 5860 5860 5860 5860 5860 5860 5860 5860
5847 5848 5849 5850 5850 5851 5851 5851 5851 5850 5850 5850 5851 5852 5853 5853 5854 5854 5854 5854 5854 5854 5854 5854 5854 5855 5855 5856 5857 5858 5858 5859 5859 5859 5860 5859 5859 5859 5859 5859 5859 5859 5860
5843 5844 5845 5846 5847 5847 5848 5848 5849 5849 5848 5848 5849 5850 5851 5852 5852 5852 5853 5853 5853 5853 5853 5853 5854 5854 5855 5856 5857 5857 5858 5858 5858 5858 5858 5858 5858 5858 5858 5858 5858 5858 5859
5838 5839 5839 5841 5842 5843 5844 5845 5846 5846 5847 5847 5847 5848 5848 5849 5850 5850 5851 5852 5852 5852 5852 5852 5853 5853 5854 5855 5856 5856 5857 5857 5857 5857 5857 5857 5857 5857 5857 5857 5857 5857 5857
5833 5834 5834 5835 5836 5838 5839 5840 5841 5842 5843 5844 5844 5845 5846 5847 5847 5848 5849 5850 5850 5851 5851 5851 5851 5852 5852 5854 5854 5855 5855 5855 5856 5856 5856 5856 5856 5855 5855 5855 5855 5855 5855
5827 5828 5829 5830 5832 5834 5835 5836 5837 5838 5839 5840 5841 5842 5843 5844 5845 5845 5846 5847 5848 5849 5849 5850 5850 5850 5850 5852 5853 5853 5854 5854 5854 5855 5855 5854 5854 5853 5853 5853 5853 5853 5852
5820 5821 5822 5824 5826 5828 5830 5832 5833 5834 5835 5836 5837 5838 5839 5840 5841 5842 5843 5844 5845 5847 5847 5847 5847 5848 5849 5849 5851 5851 5852 5852 5853 5853 5853 5853 5852 5852 5851 5851 5851 5850 5850
5814 5815 5816 5817 5820 5822 5823 5825 5827 5828 5830 5831 5832 5833 5835 5836 5837 5838 5840 5841 5842 5844 5845 5845 5844 5845 5846 5847 5848 5849 5850 5850 5851 5851 5852 5851 5851 5850 5850 5849 5849 5848 5848
5809 5810 5810 5811 5812 5815 5817 5818 5819 5821 5823 5825 5826 5827 5829 5831 5833 5834 5835 5836 5838 5839 5841 5841 5841 5841 5842 5844 5845 5846 5847 5847 5848 5849 5850 5850 5849 5849 5848 5848 5847 5847 5846
5802 5802 5803 5804 5805 5807 5809 5812 5812 5814 5816 5818 5820 5821 5824 5825 5827 5828 5829 5831 5832 5834 5836 5837 5837 5837 5838 5840 5841 5842 5843 5845 5845 5846 5847 5848 5848 5847 5847 5846 5845 5844 5844
5795 5796 5796 5796 5798 5799 5800 5803 5805 5806 5808 5810 5812 5815 5817 5819 5820 5821 5823 5825 5827 5829 5830 5831 5832 5833 5833 5835 5836 5838 5839 5840 5842 5843 5844 5845 5845 5845 5844 5844 5843 5842 5841
5788 5789 5789 5789 5790 5791 5792 5793 5795 5798 5799 5801 5804 5806 5808 5810 5812 5814 5816 5818 5820 5822 5824 5825 5826 5828 5829 5830 5832 5833 5834 5835 5837 5839 5840 5841 5841 5842 5842 5842 5841 5841 5840
5781 5780 5781 5782 5782 5783 5784 5784 5785 5787 5790 5792 5795 5797 5799 5801 5804 5805 5808 5810 5812 5814 5817 5818 5819 5821 5823 5824 5826 5827 5829 5830 5832 5834 5835 5837 5836 5838 5838 5839 5839 5838 5838
5774 5772 5771 5773 5774 5774 5774 5775 5776 5777 5779 5782 5785 5787 5789 5792 5795 5797 5799 5801 5802 5805 5808 5809 5811 5813 5815 5818 5820 5822 5824 5826 5827 5828 5830 5832 5832 5833 5834 5834 5835 5835 5835
5766 5765 5764 5763 5763 5763 5764 5764 5765 5766 5768 5770 5773 5776 5779 5782 5785 5788 5789 5791 5792 5795 5797 5800 5804 5806 5808 5811 5813 5815 5817 5819 5821 5823 5824 5826 5827 5828 5829 5830 5830 5831 5831
5755 5754 5754 5753 5753 5752 5752 5752 5752 5754 5756 5758 5761 5764 5767 5770 5774 5777 5781 5781 5785 5788 5788 5791 5794 5798 5800 5802 5806 5808 5810 5812 5814 5817 5819 5820 5821 5823 5823 5825 5826 5826 5826
5744 5742 5741 5740 5740 5739 5739 5739 5739 5740 5742 5745 5748 5751 5754 5758 5761 5764 5769 5768 5772 5776 5770 5778 5781 5788 5791 5793 5798 5800 5802 5804 5807 5809 5812 5814 5815 5817 5817 5819 5819 5820 5820
5734 5732 5729 5727 5725 5724 5724 5724 5725 5726 5727 5730 5734 5738 5740 5744 5748 5751 5754 5755 5760 5754 5764 5763 5768 5776 5781 5785 5788 5793 5795 5797 5799 5801 5804 5806 5807 5809 5810 5811 5812 5813 5814
5725 5722 5719 5716 5713 5710 5709 5708 5709 5711 5712 5714 5717 5721 5725 5729 5734 5738 5739 5741 5748 5752 5751 5757 5756 5757 5765 5774 5778 5784 5786 5789 5791 5794 5796 5798 5801 5801 5803 5805 5805 5806 5807
5715 5711 5708 5705 5702 5699 5695 5694 5694 5695 5696 5699 5701 5705 5708 5712 5717 5722 5726 5729 5733 5737 5745 5748 5751 5755 5756 5761 5767 5773 5776 5779 5782 5785 5787 5789 5792 5794 5794 5796 5798 5799 5799
5704 5700 5697 5693 5689 5687 5684 5681 5680 5680 5681 5682 5684 5688 5692 5695 5700 5704 5710 5715 5719 5725 5729 5735 5741 5745 5748 5753 5755 5759 5766 5769 5772 5775 5778 5782 5783 5784 5786 5787 5788 5790 5791
5694 5688 5684 5680 5676 5672 5669 5668 5667 5666 5667 5668 5670 5671 5675 5679 5682 5687 5693 5698 5704 5708 5714 5721 5728 5733 5739 5743 5746 5749 5754 5760 5762 5766 5769 5772 5774 5775 5777 5778 5779 5779 5781
5682 5676 5671 5666 5662 5658 5654 5653 5653 5652 5653 5654 5655 5655 5657 5661 5667 5672 5677 5683 5687 5693 5699 5707 5715 5721 5726 5730 5736 5739 5744 5749 5751 5754 5758 5760 5764 5765 5767 5768 5770 5770 5771
5671 5665 5657 5652 5648 5644 5641 5639 5638 5638 5639 5639 5640 5641 5644 5646 5651 5657 5662 5666 5672 5677 5683 5691 5698 5705 5711 5717 5723 5729 5734 5738 5738 5743 5748 5751 5753 5755 5757 5759 5760 5762 5762
5658 5650 5644 5638 5633 5629 5626 5623 5622 5622 5622 5622 5625 5627 5631 5634 5638 5642 5647 5651 5657 5663 5668 5674 5681 5688 5696 5703 5712 5716 5721 5725 5729 5732 5736 5738 5740 5743 5746 5749 5750 5752 5754
5644 5636 5629 5622 5617 5611 5608 5605 5604 5604 5604 5606 5608 5612 5616 5620 5625 5630 5634 5638 5642 5649 5655 5661 5668 5676 5683 5691 5699 5704 5708 5712 5716 5720 5724 5725 5727 5731 5734 5737 5740 5742 5742